Location: Binningen
(47.7924°N, 8.7261°E)
Time: 06:36:43
(UTC+00:00)

Cosmos 2297 - Pass Details

Date: 17 May 2021
Orbit: 837 x 857 km, 71.0° (Epoch: 15 June)

Event Time Altitude Azimuth Distance (km) Brightness Sun altitude
Rises 19:55:53 0° 177° (S) 3,404 6.4 -8.5°
Reaches altitude 10° 19:58:32 10° 168° (SSE) 2,470 5.6 -8.8°
Maximum altitude 20:03:33 33° 106° (ESE) 1,381 4.4 -9.4°
Drops below altitude 10° 20:08:34 10° 43° (NE) 2,474 6.2 -10.0°
Sets 20:11:13 0° 35° (NE) 3,410 7.0 -10.3°
